TimeEST,TemperatureF,Dew PointF,Humidity,Sea Level PressureIn,VisibilityMPH,Wind Direction,Wind SpeedMPH,Gust SpeedMPH,PrecipitationIn,Events,Conditions,WindDirDegrees,DateUTC
12:53 AM,6.1,-0.9,73,30.48,10.0,West,4.6,-,N/A,,Clear,260,2014-01-04 05:53:00
1:53 AM,5.0,-0.9,76,30.46,10.0,South,3.5,-,N/A,,Clear,190,2014-01-04 06:53:00
2:53 AM,3.0,-2.0,80,30.47,10.0,SW,3.5,-,N/A,,Clear,220,2014-01-04 07:53:00
3:53 AM,3.9,-0.9,80,30.46,10.0,Calm,Calm,-,N/A,,Clear,0,2014-01-04 08:53:00
4:53 AM,3.9,-0.9,80,30.46,9.0,Calm,Calm,-,N/A,,Clear,0,2014-01-04 09:53:00
5:53 AM,5.0,-0.0,80,30.47,9.0,Calm,Calm,-,N/A,,Clear,0,2014-01-04 10:53:00
6:53 AM,3.0,-0.9,84,30.47,10.0,Calm,Calm,-,N/A,,Clear,0,2014-01-04 11:53:00
7:53 AM,3.9,-0.0,84,30.48,9.0,Calm,Calm,-,N/A,,Clear,0,2014-01-04 12:53:00
8:53 AM,8.1,3.0,80,30.47,9.0,Calm,Calm,-,N/A,,Clear,0,2014-01-04 13:53:00
9:53 AM,17.1,6.1,62,30.46,10.0,Calm,Calm,-,N/A,,Clear,0,2014-01-04 14:53:00
10:53 AM,21.9,3.9,46,30.43,10.0,South,4.6,-,N/A,,Clear,170,2014-01-04 15:53:00
11:53 AM,25.0,3.9,41,30.39,10.0,South,8.1,-,N/A,,Clear,170,2014-01-04 16:53:00
12:53 PM,27.0,6.1,41,30.35,10.0,SE,6.9,-,N/A,,Clear,140,2014-01-04 17:53:00
1:53 PM,28.9,7.0,40,30.33,10.0,SE,6.9,-,N/A,,Clear,130,2014-01-04 18:53:00
2:53 PM,30.0,9.0,41,30.32,10.0,SSE,8.1,-,N/A,,Clear,150,2014-01-04 19:53:00
3:53 PM,30.9,10.0,42,30.30,10.0,SSE,6.9,-,N/A,,Clear,150,2014-01-04 20:53:00
4:53 PM,28.9,10.0,45,30.29,10.0,SSE,8.1,-,N/A,,Clear,150,2014-01-04 21:53:00
5:53 PM,27.0,10.0,49,30.29,10.0,SE,3.5,-,N/A,,Clear,140,2014-01-04 22:53:00
6:53 PM,21.9,10.9,63,30.28,10.0,Calm,Calm,-,N/A,,Clear,0,2014-01-04 23:53:00
7:53 PM,19.9,10.9,68,30.29,10.0,Calm,Calm,-,N/A,,Clear,0,2014-01-05 00:53:00
8:53 PM,18.0,10.0,71,30.28,10.0,Calm,Calm,-,N/A,,Clear,0,2014-01-05 01:53:00
9:53 PM,16.0,9.0,74,30.27,10.0,Calm,Calm,-,N/A,,Clear,0,2014-01-05 02:53:00
10:53 PM,12.9,7.0,77,30.25,10.0,Calm,Calm,-,N/A,,Clear,0,2014-01-05 03:53:00
11:53 PM,14.0,8.1,77,30.24,10.0,Calm,Calm,-,N/A,,Clear,0,2014-01-05 04:53:00